CW2674 Weather Reports


Display with metric or nautical units.
time (UTC)temp
F
wind
direction
speed
MPH
gust
MPH
rain 1hr
in
rain 24hr
in
rain mn
in
humidity
%
barometer
mb
20260509153406 84 229 3.0 9.0 0.00 0.00 0.00 21 1010.6
20260509151404 81 222 2.0 3.0 0.00 0.00 0.00 25 1010.6
20260509150403 81 218 2.0 3.0 0.00 0.00 0.00 22 1010.6
20260509144404 79 218 0.0 2.0 0.00 0.00 0.00 24 1010.4
20260509143405 77 218 0.0 3.0 0.00 0.00 0.00 29 1010.3
20260509141405 74 218 0.0 0.0 0.00 0.00 0.00 32 1010.2
20260509140404 74 218 0.0 3.0 0.00 0.00 0.00 32 1010.2
20260509133405 71 218 0.0 2.0 0.00 0.00 0.00 31 1009.9
20260509131405 70 218 1.0 2.0 0.00 0.00 0.00 28 1009.6
20260509130405 71 218 1.0 3.0 0.00 0.00 0.00 27 1009.5
20260509071404 79 238 0.0 0.0 0.00 0.00 0.00 22 1008.2
20260509070404 79 238 0.0 0.0 0.00 0.00 0.00 22 1008.1
20260509063405 82 238 0.0 3.0 0.00 0.00 0.00 20 1008.1
20260509060404 86 243 3.0 9.0 0.00 0.00 0.00 18 1007.9
20260509054404 87 226 3.0 7.0 0.00 0.00 0.00 18 1007.8
20260509053404 87 230 3.0 7.0 0.00 0.00 0.00 17 1007.8
20260509051405 88 242 4.0 9.0 0.00 0.00 0.00 17 1007.7
20260509050404 88 223 4.0 9.0 0.00 0.00 0.00 17 1007.7
20260509044404 89 244 4.0 10.0 0.00 0.00 0.00 17 1007.7
20260509043404 90 227 5.0 13.0 0.00 0.00 0.00 17 1007.7
20260509041404 91 241 5.0 17.0 0.00 0.00 0.00 15 1007.5
20260509040405 92 228 7.0 13.0 0.00 0.00 0.00 15 1007.3
20260509034405 91 238 6.0 12.0 0.00 0.00 0.00 16 1007.1
20260509033404 92 224 5.0 9.0 0.00 0.00 0.00 16 1006.9
20260509031404 92 229 3.0 7.0 0.00 0.00 0.00 16 1006.7
20260509030405 93 234 5.0 7.0 0.00 0.00 0.00 15 1006.6
20260509024404 94 242 4.0 8.0 0.00 0.00 0.00 13 1006.3
20260509023404 95 270 6.0 12.0 0.00 0.00 0.00 12 1006.2
20260509021405 97 271 7.0 12.0 0.00 0.00 0.00 11 1006.1
20260508223404 104 339 5.0 14.0 0.00 0.00 0.00 11 1007.2
20260508221404 103 302 5.0 15.0 0.00 0.00 0.00 11 1007.6
20260508220404 103 253 9.0 17.0 0.00 0.00 0.00 12 1007.8
20260508214404 103 253 10.0 18.0 0.00 0.00 0.00 12 1008.3
20260508210403 102 273 5.0 13.0 0.00 0.00 0.00 13 1009.1
20260508204403 101 214 4.0 13.0 0.00 0.00 0.00 15 1009.5
20260508203405 99 275 3.0 12.0 0.00 0.00 0.00 15 1009.5
20260508201404 99 279 6.0 12.0 0.00 0.00 0.00 15 1009.8
20260508194403 98 218 5.0 10.0 0.00 0.00 0.00 16 1010.3
20260508193404 97 175 3.0 9.0 0.00 0.00 0.00 15 1010.4
20260508191405 96 201 3.0 8.0 0.00 0.00 0.00 16 1010.8
20260508184405 96 113 2.0 7.0 0.00 0.00 0.00 17 1011.2
20260508181404 92 238 3.0 7.0 0.00 0.00 0.00 18 1011.7
20260508171405 87 180 1.0 3.0 0.00 0.00 0.00 22 1012.2
20260508170407 86 180 1.0 6.0 0.00 0.00 0.00 22 1012.3
20260508164404 85 201 2.0 5.0 0.00 0.00 0.00 23 1012.3
20260508163405 84 202 2.0 6.0 0.00 0.00 0.00 23 1012.4
20260508161406 83 188 3.0 5.0 0.00 0.00 0.00 25 1012.5
20260508154404 80 190 1.0 3.0 0.00 0.00 0.00 27 1012.6